This is the latest recevied weather packets stored in our database for station/object N4AR. If no packets are shown the sender has not sent any weather packets the latest 10 day(s).
| Time | Temp. | Humidity | Pressure | Rain* | Wind** | Luminosity | Snow |
|---|---|---|---|---|---|---|---|
| 1777907282 | 22.22° C | 41% | 1016.2 hPa | 0 mm | - | 718 W/m² | - |
| 1777906978 | 21.67° C | 41% | 1016.1 hPa | 0 mm | - | 705 W/m² | - |
| 1777906676 | 22.22° C | 40% | 1016.1 hPa | 0 mm | - | 690 W/m² | - |
| 1777906372 | 22.22° C | 41% | 1016 hPa | 0 mm | - | 682 W/m² | - |
| 1777906069 | 21.67° C | 42% | 1016.3 hPa | 0 mm | - | 669 W/m² | - |
| 1777905765 | 21.67° C | 43% | 1016.5 hPa | 0 mm | - | 363 W/m² | - |
| 1777905463 | 21.67° C | 41% | 1016.4 hPa | 0 mm | - | 640 W/m² | - |
| 1777905160 | 21.11° C | 43% | 1016.6 hPa | 0 mm | - | 626 W/m² | - |
| 1777904857 | 20.56° C | 43% | 1016.3 hPa | 0 mm | - | 609 W/m² | - |
| 1777904555 | 21.11° C | 42% | 1016.4 hPa | 0 mm | - | 594 W/m² | - |
| 1777904251 | 21.67° C | 41% | 1016.4 hPa | 0 mm | - | 580 W/m² | - |
| 1777903949 | 21.11° C | 43% | 1016.3 hPa | 0 mm | - | 562 W/m² | - |
| 1777903645 | 20.56° C | 44% | 1016.4 hPa | 0 mm | - | 545 W/m² | - |
| 1777903340 | 20° C | 45% | 1016.3 hPa | 0 mm | - | 529 W/m² | - |
| 1777903038 | 20° C | 46% | 1016.4 hPa | 0 mm | - | 510 W/m² | - |
| 1777902734 | 19.44° C | 45% | 1016.4 hPa | 0 mm | - | 494 W/m² | - |
| 1777902432 | 19.44° C | 47% | 1016.4 hPa | 0 mm | - | 477 W/m² | - |
| 1777902128 | 19.44° C | 48% | 1016.5 hPa | 0 mm | - | 460 W/m² | - |
| 1777901827 | 18.89° C | 49% | 1016.4 hPa | 0 mm | - | 443 W/m² | - |
| 1777901524 | 18.33° C | 51% | 1016.5 hPa | 0 mm | - | 425 W/m² | - |
| 1777901221 | 18.33° C | 51% | 1016.6 hPa | 0 mm | - | 405 W/m² | - |
| 1777900918 | 17.78° C | 52% | 1016.6 hPa | 0 mm | - | 386 W/m² | - |
| 1777900615 | 17.22° C | 54% | 1016.7 hPa | 0 mm | - | 369 W/m² | - |
| 1777900312 | 16.67° C | 56% | 1016.7 hPa | 0 mm | - | 348 W/m² | - |
| 1777900009 | 16.67° C | 58% | 1016.8 hPa | 0 mm | - | 330 W/m² | - |
* Rain latest hour (hover to see other rain measurements)
** Current wind speed in m/s (hover to see current wind gust speed)